sat.trackr.live / text

‹ back to catalog

GONETS-M 19

NORAD 46488 · 2020-068C

PAYLOAD ACTIVE UNKNOWN

§ Identity

Operator
Country
CIS
Launch date
2020-09-28
Launch site
PLMSC
Launch vehicle
Mass (kg)
RCS (m²)

External: N2YO · Heavens-Above · Gunter

§ Orbital elements

Epoch: 2026-05-25T03:02:04.021152Z

Period
115.86 min
Inclination
82.4982°
Eccentricity
0.0014454
Mean motion
12.42890856 rev/d
Perigee alt
1,483.0 km
Apogee alt
1,505.8 km
Semi-major
7,872.5 km
B*
-9.9682e-4
RAAN
1.4236°
Arg perigee
95.7910°
Mean anomaly
264.4817°
Rev number
25,638

§ Raw data

GONETS-M 191 46488U 20068C   26145.12643543 -.00000128  00000+0 -99682-3 0  99912 46488  82.4982   1.4236 0014454  95.7910 264.4817 12.42890856256381

JSON: /api/v1/satellites/46488 · /tle

For live sub-satellite position, see the globe view (requires WebGL).

§ Visibility from observer

Set your observer location to see the next 7 days of passes ≥ 10°. The values pass through the URL so the page stays shareable.

No JS? Fill the form by hand. The geolocation button needs JavaScript.

§ Radio — SatNOGS DB

ModeDescriptionDownlinkUplink
FM UHF Unknown 388.787 MHz

1 transmitter · refreshed weekly from db.satnogs.org